Wind_Speed
19 20 19 17 15 13 12 11 10 12 11 10 12 13 13 14 13 12 12 13 12 11 10 9 9 8 8 9 10 11 12 14 15 16 17 18 18 19 19 20 20 19 18 16
16 16 15 15 16 15 10 10 12 14 11 10 11 12 13 13 12 12 12 12 12 11 10 9 9 9 8 9 10 11 12 13 15 16 17 17 18 18 19 19 19 18 17 16
15 15 16 15 13 13 12 11 12 12 9 9 10 9 11 12 12 12 12 12 12 11 10 9 9 9 9 9 10 11 12 13 14 15 16 17 17 18 18 18 18 18 17 16
14 14 15 14 14 14 13 12 10 9 8 8 8 8 10 13 13 12 12 12 12 11 11 10 9 9 9 10 10 10 11 13 14 15 16 17 17 17 17 17 17 17 16 15
12 13 14 13 12 13 12 9 8 7 7 7 7 8 10 14 15 13 12 11 11 11 11 11 10 10 9 9 9 10 11 12 13 14 15 16 16 16 16 16 16 16 16 15
9 11 12 12 11 10 9 7 6 5 5 6 7 10 9 14 16 16 14 12 11 11 11 11 11 10 10 9 9 9 10 12 13 14 15 15 15 15 15 15 15 15 15 14
5 6 7 8 8 7 7 6 5 4 5 6 7 11 11 15 15 15 14 13 12 12 11 11 11 11 10 9 9 9 10 11 12 13 14 15 15 15 14 14 14 14 14 13
2 1 4 5 6 7 6 6 6 7 8 8 8 9 14 18 16 15 14 13 13 12 12 12 12 12 11 10 10 10 10 11 12 13 14 14 14 14 13 13 13 14 13 13
3 4 5 5 6 7 7 7 8 10 9 7 6 8 16 19 17 15 14 14 13 13 13 13 12 12 11 11 10 10 10 10 11 12 13 13 13 13 13 13 13 13 12 12
5 3 5 5 7 8 8 9 10 10 10 9 8 9 14 19 19 18 16 15 14 14 14 13 13 13 12 12 11 10 10 10 11 11 12 13 13 12 12 12 12 12 12 12
3 2 4 5 6 8 9 10 11 11 10 10 12 12 19 21 20 19 18 16 15 15 15 15 14 13 13 12 12 11 10 10 10 11 11 12 12 12 12 12 12 12 12 12
3 4 4 7 9 10 12 12 13 14 13 14 16 16 20 21 20 19 19 18 17 16 16 15 15 15 14 13 13 12 11 10 10 10 10 11 11 12 12 11 12 12 12 12
3 4 6 9 11 12 13 13 14 16 17 17 18 16 19 21 21 21 20 19 18 17 17 16 16 16 15 15 14 13 12 11 11 10 10 10 11 11 11 11 11 12 12 12
6 6 8 10 13 16 17 18 19 19 19 19 18 18 19 22 24 24 23 21 20 19 18 17 17 17 16 16 15 14 13 12 11 11 10 10 10 10 11 11 11 11 12 12
9 9 10 12 14 17 19 19 21 21 21 21 20 21 22 24 25 24 23 22 21 20 19 18 18 18 17 17 17 15 15 14 13 12 11 10 10 10 10 11 11 11 12 12
12 12 13 13 15 17 18 18 19 21 22 22 22 22 23 25 24 24 23 22 22 21 20 19 19 19 19 18 18 17 16 15 14 13 13 12 11 10 10 10 11 11 11 12
15 16 16 15 16 18 18 17 19 21 22 23 24 24 24 24 24 24 23 22 22 21 21 21 20 20 20 20 20 19 18 17 16 15 14 13 12 11 11 11 10 11 11 12
18 19 20 19 19 19 17 20 22 23 24 25 25 25 24 23 23 24 24 23 21 21 21 21 21 21 21 21 21 21 20 19 19 17 16 15 14 13 12 12 11 11 11 12
19 21 22 23 23 23 21 23 23 24 26 27 27 26 25 23 24 26 25 24 23 23 22 22 22 22 23 23 23 23 22 21 20 19 18 17 16 15 14 13 13 12 12 12
24 24 25 25 26 27 26 28 26 27 31 32 30 28 28 26 26 28 26 25 25 25 25 24 24 24 24 25 25 25 24 24 23 22 21 20 19 18 16 15 14 14 13 12
28 29 28 28 28 29 33 32 31 32 35 35 33 32 31 30 29 29 29 28 27 28 27 27 27 27 27 27 27 27 26 26 25 24 23 22 21 20 19 18 17 16 15 14
30 31 32 32 32 34 37 36 35 36 38 38 37 36 35 34 33 32 31 31 30 30 30 29 29 29 29 29 29 29 28 28 28 27 26 25 24 23 22 21 20 19 18 17
33 34 35 34 35 38 40 40 40 40 41 41 40 39 39 38 37 36 35 34 34 33 33 32 32 32 31 31 31 31 31 31 30 29 29 28 27 26 25 24 23 22 21 20
35 38 39 39 36 38 42 44 45 44 44 44 43 42 42 41 40 39 38 37 37 36 36 35 35 34 34 34 34 34 33 33 32 32 31 31 30 29 28 27 25 24 24 23
38 40 42 43 42 42 44 47 48 48 46 46 45 45 45 45 44 43 42 41 40 39 39 38 38 37 36 36 36 36 36 35 35 34 34 33 33 32 31 30 28 27 26 26
42 44 46 46 46 48 48 49 50 51 50 49 48 48 48 48 47 47 46 45 44 43 43 42 41 40 39 39 39 38 38 38 37 37 36 35 35 34 33 32 31 30 29 28
Wind_Direction
184 192 195 198 201 202 210 222 236 256 265 277 284 288 292 298 298 299 301 300 301 300 294 287 291 298 304 311 316 323 330 334 336 338 338 339 341 344 346 348 349 349 349 348
173 178 180 186 193 197 212 220 242 254 266 279 286 292 293 297 301 302 304 302 298 294 288 286 286 292 299 308 313 321 328 332 334 337 338 339 341 344 347 349 351 351 352 352
158 170 177 187 193 201 212 230 243 257 277 282 287 296 304 302 307 308 304 299 296 290 283 281 284 289 296 305 311 318 325 330 332 335 338 340 341 344 347 350 353 354 354 355
151 169 179 191 196 201 215 230 248 265 276 294 302 311 314 309 310 306 301 297 294 290 284 281 281 287 293 302 308 316 323 328 331 334 337 340 342 344 347 350 353 356 357 358
160 173 182 193 201 208 221 236 253 272 288 309 314 316 312 308 308 306 301 295 291 286 281 278 278 282 288 297 305 312 321 327 330 334 337 339 341 344 347 350 353 356 359 2
164 175 187 197 209 221 232 245 261 282 304 319 309 310 308 296 304 309 305 296 291 286 279 277 277 280 285 293 300 308 317 324 329 334 336 338 340 343 346 349 353 356 359 3
150 179 199 210 221 231 244 254 266 282 288 296 310 315 299 291 303 305 300 295 291 285 279 277 276 277 282 287 293 302 312 320 327 333 335 337 339 342 344 348 352 356 359 3
77 240 227 226 235 241 247 256 268 283 289 314 325 310 294 299 305 303 297 292 288 282 276 274 274 274 277 282 286 294 306 317 326 332 335 337 339 341 344 347 351 356 360 3
154 271 271 258 254 257 257 256 264 278 288 300 303 300 299 302 309 306 299 294 288 282 275 273 272 272 273 277 281 287 299 313 323 330 335 339 341 342 344 347 350 353 358 2
168 253 286 278 274 272 272 275 277 280 281 284 283 292 281 294 309 308 301 294 289 283 277 272 271 270 270 273 276 281 292 306 317 326 333 338 341 342 344 347 350 352 354 357
187 222 298 304 297 296 288 280 281 283 285 287 284 280 285 294 300 299 297 293 289 284 278 273 270 269 268 269 271 275 285 298 310 319 328 334 338 341 343 346 348 351 352 354
217 236 273 294 292 297 292 288 285 283 280 275 276 286 289 295 296 295 293 291 288 283 278 272 270 268 266 265 266 270 278 289 301 312 321 329 335 340 342 345 347 349 351 353
281 252 253 274 286 297 295 290 286 286 287 285 283 285 287 293 296 294 292 291 289 281 275 271 269 267 264 261 262 265 271 281 291 301 312 321 329 335 340 342 344 348 350 352
300 279 263 270 281 289 294 293 293 292 289 287 285 282 278 282 285 287 288 288 288 283 275 270 267 264 262 260 259 261 266 273 282 291 300 310 319 327 333 338 342 346 349 352
307 293 282 277 279 282 286 291 294 294 291 289 287 283 280 277 280 285 286 285 284 282 276 270 267 263 260 257 256 258 262 267 273 280 289 299 307 316 324 330 335 341 346 349
311 303 296 293 292 290 292 294 295 295 293 290 289 286 283 283 286 287 286 283 281 279 275 270 267 263 259 255 254 255 257 262 267 272 278 287 295 303 312 320 326 333 339 343
308 304 301 300 296 295 299 298 294 294 295 293 289 287 286 287 288 287 283 279 277 276 272 268 265 261 258 254 253 253 254 257 261 265 270 276 283 290 298 306 313 321 328 334
306 302 301 300 297 296 301 293 290 290 290 288 288 289 289 288 288 284 280 277 276 274 270 267 264 261 258 254 252 252 252 254 257 260 263 268 274 280 286 293 300 308 316 323
307 304 302 301 299 298 295 289 290 291 290 289 289 290 290 289 284 281 282 280 276 272 269 266 264 261 259 256 253 251 251 251 254 256 258 262 266 271 277 282 289 296 304 312
306 303 301 300 297 297 292 289 290 289 284 288 292 292 290 285 280 280 281 278 274 271 269 266 264 261 259 257 254 251 250 249 251 253 255 257 261 265 269 274 279 286 293 300
301 300 299 298 295 292 289 291 291 285 286 292 292 290 288 285 280 278 274 273 271 269 268 267 264 262 259 257 255 253 251 249 249 251 253 255 257 260 264 268 272 277 282 288
296 296 296 295 293 287 293 292 289 287 288 289 289 288 286 284 281 278 274 271 269 267 266 265 263 261 259 257 256 254 252 251 249 250 251 253 255 257 260 263 266 270 275 280
293 292 290 290 289 289 290 289 288 287 287 287 286 285 284 282 280 277 274 271 269 266 264 264 262 260 258 257 255 254 253 252 251 250 250 252 253 255 257 259 263 266 270 274
293 291 290 290 289 286 286 287 288 288 286 286 285 283 282 280 277 274 272 270 268 266 264 262 261 258 257 256 255 254 253 252 251 251 251 251 252 254 255 257 260 264 267 270
294 290 289 288 289 285 283 285 287 288 286 285 283 282 280 278 275 273 270 268 266 265 263 262 260 258 256 254 254 253 253 252 251 251 251 251 252 253 255 256 259 261 264 267
292 290 289 289 288 287 287 286 286 286 286 285 283 281 279 277 274 272 270 268 266 264 262 260 259 257 255 254 253 252 252 252 252 251 251 251 252 253 254 256 258 260 263 266
Height
5798 5806 5812 5816 5821 5825 5829 5832 5834 5835 5836 5838 5840 5840 5840 5840 5840 5840 5840 5839 5838 5838 5837 5837 5837 5837 5836 5835 5834 5833 5832 5830 5828 5826 5823 5820 5817 5813 5809 5805 5800 5796 5792 5788
5803 5808 5812 5817 5821 5825 5827 5831 5833 5834 5835 5837 5838 5839 5839 5839 5838 5838 5838 5837 5836 5836 5836 5836 5836 5836 5835 5834 5833 5832 5831 5829 5827 5825 5822 5819 5816 5812 5808 5804 5800 5796 5792 5788
5806 5810 5814 5817 5821 5825 5828 5830 5832 5833 5834 5836 5838 5838 5837 5837 5837 5836 5836 5835 5835 5834 5834 5835 5834 5834 5834 5833 5832 5831 5830 5828 5826 5824 5821 5819 5815 5812 5808 5804 5800 5796 5793 5789
5808 5811 5815 5818 5821 5824 5828 5830 5832 5833 5835 5836 5837 5837 5837 5835 5835 5835 5835 5834 5833 5833 5832 5832 5833 5832 5832 5832 5831 5830 5828 5827 5825 5823 5821 5818 5815 5812 5808 5805 5801 5797 5793 5790
5810 5813 5817 5820 5822 5825 5828 5830 5832 5833 5834 5835 5835 5836 5837 5834 5833 5833 5833 5832 5831 5831 5831 5831 5831 5831 5830 5830 5829 5828 5827 5826 5824 5822 5820 5817 5814 5811 5808 5805 5801 5798 5794 5791
5813 5816 5819 5821 5824 5826 5828 5830 5832 5833 5834 5835 5835 5836 5836 5833 5832 5831 5830 5830 5829 5829 5829 5829 5829 5829 5829 5828 5828 5827 5826 5825 5823 5821 5819 5816 5814 5811 5808 5805 5802 5798 5795 5792
5818 5819 5821 5823 5825 5827 5829 5830 5832 5832 5833 5834 5834 5834 5834 5831 5831 5830 5829 5828 5827 5827 5827 5827 5827 5827 5827 5827 5826 5826 5825 5824 5822 5820 5818 5816 5813 5810 5808 5805 5802 5799 5796 5793
5820 5822 5823 5825 5826 5827 5828 5830 5832 5832 5832 5832 5833 5833 5832 5829 5828 5828 5827 5826 5825 5825 5824 5825 5825 5825 5825 5825 5825 5824 5824 5823 5821 5819 5817 5815 5812 5810 5808 5805 5802 5799 5797 5794
5822 5823 5824 5825 5826 5827 5828 5829 5830 5830 5830 5831 5833 5832 5830 5826 5826 5825 5824 5823 5823 5822 5822 5822 5822 5823 5823 5823 5823 5823 5822 5821 5820 5818 5816 5814 5812 5810 5807 5805 5802 5800 5797 5795
5822 5823 5824 5825 5826 5827 5828 5828 5828 5829 5829 5829 5830 5831 5828 5824 5824 5823 5822 5821 5820 5820 5820 5820 5820 5820 5821 5821 5821 5821 5820 5820 5819 5817 5815 5813 5811 5809 5807 5805 5802 5800 5798 5795
5822 5823 5824 5824 5825 5826 5826 5827 5826 5826 5827 5827 5827 5829 5825 5823 5822 5820 5819 5818 5817 5817 5817 5817 5817 5817 5818 5818 5818 5819 5818 5818 5817 5816 5814 5813 5811 5809 5807 5804 5802 5800 5798 5796
5822 5823 5823 5823 5824 5824 5824 5824 5824 5824 5824 5824 5823 5826 5821 5819 5818 5816 5816 5815 5814 5814 5814 5813 5814 5814 5815 5815 5816 5816 5816 5816 5815 5814 5813 5812 5810 5808 5806 5804 5802 5800 5798 5796
5821 5822 5822 5822 5823 5822 5821 5821 5821 5821 5820 5820 5820 5822 5818 5815 5813 5812 5812 5811 5810 5810 5810 5810 5810 5811 5811 5812 5813 5813 5813 5813 5813 5812 5812 5810 5809 5807 5805 5804 5802 5800 5798 5796
5819 5820 5821 5821 5819 5818 5818 5817 5817 5817 5816 5816 5816 5816 5815 5813 5810 5809 5808 5807 5807 5806 5806 5806 5806 5807 5807 5808 5809 5810 5810 5811 5810 5810 5810 5809 5808 5806 5805 5803 5801 5799 5797 5795
5817 5817 5817 5816 5816 5815 5814 5814 5813 5812 5811 5811 5811 5810 5809 5807 5806 5804 5804 5803 5802 5802 5802 5802 5802 5803 5803 5804 5805 5806 5807 5807 5808 5807 5807 5806 5806 5805 5803 5802 5800 5799 5797 5795
5814 5814 5813 5813 5812 5811 5811 5810 5809 5808 5807 5806 5805 5805 5803 5801 5800 5800 5799 5799 5798 5798 5797 5797 5798 5798 5799 5800 5801 5802 5803 5803 5804 5804 5804 5804 5803 5803 5802 5800 5799 5797 5796 5794
5811 5810 5810 5809 5808 5807 5807 5806 5805 5803 5802 5801 5799 5799 5797 5797 5796 5795 5793 5793 5793 5793 5793 5793 5793 5793 5794 5795 5796 5797 5798 5799 5800 5800 5801 5801 5800 5800 5799 5798 5797 5796 5794 5793
5808 5806 5805 5804 5804 5803 5806 5802 5799 5798 5797 5795 5793 5792 5791 5792 5791 5789 5787 5787 5788 5788 5788 5788 5788 5788 5788 5789 5790 5791 5793 5794 5795 5796 5796 5797 5797 5797 5796 5795 5795 5794 5792 5791
5803 5802 5800 5799 5798 5798 5798 5795 5793 5792 5790 5788 5787 5786 5786 5786 5785 5782 5782 5782 5782 5782 5782 5782 5782 5783 5783 5784 5785 5786 5787 5788 5790 5791 5791 5792 5792 5793 5792 5792 5791 5791 5790 5789
5798 5796 5795 5794 5792 5791 5791 5788 5787 5788 5783 5780 5780 5780 5779 5779 5779 5778 5777 5776 5776 5776 5776 5776 5776 5777 5777 5778 5778 5779 5781 5782 5784 5785 5786 5787 5787 5788 5788 5788 5788 5787 5786 5785
5792 5790 5789 5787 5786 5784 5780 5780 5781 5780 5776 5773 5773 5772 5771 5771 5771 5771 5770 5769 5769 5769 5769 5769 5770 5770 5771 5771 5771 5772 5774 5775 5777 5778 5779 5780 5781 5782 5783 5783 5783 5783 5782 5782
5786 5783 5782 5780 5778 5777 5772 5772 5772 5770 5766 5765 5764 5764 5763 5762 5761 5761 5761 5761 5761 5761 5761 5761 5762 5762 5763 5764 5764 5765 5766 5768 5769 5771 5772 5773 5774 5775 5776 5777 5777 5777 5777 5777
5778 5776 5773 5773 5773 5767 5763 5761 5760 5759 5757 5755 5755 5754 5753 5752 5752 5751 5751 5751 5752 5752 5752 5753 5753 5754 5755 5756 5756 5757 5758 5759 5761 5763 5764 5766 5767 5768 5769 5770 5770 5771 5771 5771
5770 5766 5763 5762 5762 5759 5754 5750 5748 5748 5746 5745 5744 5743 5742 5741 5741 5740 5740 5740 5741 5741 5742 5742 5743 5744 5745 5746 5747 5748 5749 5750 5752 5754 5755 5757 5759 5760 5761 5762 5763 5764 5764 5764
5760 5755 5752 5750 5749 5747 5744 5739 5737 5735 5734 5732 5731 5730 5729 5728 5728 5728 5728 5728 5729 5729 5730 5731 5732 5733 5734 5736 5737 5738 5739 5741 5742 5744 5746 5748 5749 5751 5753 5754 5755 5756 5756 5757
5747 5743 5740 5738 5736 5733 5731 5727 5724 5721 5720 5718 5717 5716 5715 5713 5713 5713 5713 5714 5715 5716 5717 5718 5719 5720 5722 5724 5725 5727 5729 5730 5732 5734 5736 5738 5740 5742 5743 5745 5746 5747 5748 5748